Regional Weather Roundup
Issued by NWS

Home | Current Version | Previous Version | Graphics & Text | Print | Product List | Glossary On
Versions: 1 2 3 4 5 6 7 8 9 10 11 12 13 14 15 16 17 18 19 20 21 22 23 24 25 26 27 28 29 30 31 32 33 34 35 36 37 38 39 40 41 42 43 44 45 46 47 48 49 50
000
ASUS43 KFSD 282210
RWRSD

WEATHER ROUNDUP FOR SOUTH DAKOTA
NATIONAL WEATHER SERVICE SIOUX FALLS SD
500 PM CDT WED JUN 28 2017

NOTE: "FAIR" INDICATES FEW OR NO CLOUDS BELOW 12,000 FEET WITH NO
SIGNIFICANT WEATHER AND/OR OBSTRUCTIONS TO VISIBILITY.


SDZ001>005-009-010-012>017-282300-
NORTHWEST AND NORTH CENTRAL SOUTH DAKOTA

CITY           SKY/WX    TMP DP  RH WIND       PRES   REMARKS
BUFFALO          N/A     83  26  12 CALM      29.68F
FAITH            N/A     84  32  15 N7G16     29.72F
MOBRIDGE       MOSUNNY   87  25  10 NW14      29.65F
$$

SDZ012>016-024>037-041>051-057-063-072>074-282300-
SOUTHWEST AND SOUTH CENTRAL SOUTH DAKOTA

CITY           SKY/WX    TMP DP  RH WIND       PRES   REMARKS
RAPID CTY ARPT MOSUNNY   82  46  28 SE8       29.73F
PIERRE         SUNNY     85  42  22 N16       29.68S
CUSTER         MOSUNNY   70  48  45 E21G28    29.86F
ELLSWORTH AFB  MOSUNNY   83  44  25 SE6       29.73F
PHILIP         SUNNY     85  43  22 NW6       29.70
SPEARFISH      FAIR      77  45  31 NE13      29.78S
WINNER         FAIR      89  51  27 NW10G21   29.70S
$$

SDZ004>011-016>023-039-040-282300-
NORTHEAST SOUTH DAKOTA

CITY           SKY/WX    TMP DP  RH WIND       PRES   REMARKS
ABERDEEN       SUNNY     84  46  26 NW18G25   29.62R
WATERTOWN      MOSUNNY   78  60  53 NW14      29.62R
BROOKINGS      SUNNY     83  62  49 NW18      29.62R
SISSETON         N/A     79  64  60 NW24G31   29.58R
$$

SDZ017-020-022-023-036>040-048>070-282300-
SOUTHEAST SOUTH DAKOTA

CITY           SKY/WX    TMP DP  RH WIND       PRES   REMARKS
SIOUX FALLS    MOSUNNY   85  65  51 W10       29.61F
HURON          SUNNY     88  51  28 NW18      29.62S
CHAMBERLAIN    MOSUNNY   86  55  33 N12       29.67F
MITCHELL       SUNNY     88  54  31 NW18G26   29.63S
YANKTON        MOSUNNY   87  61  41 W14       29.65S
$$

ABBREVIATIONS USED IN REMARKS
   TC - TEMPERATURE IN CELSIUS
  WCI - WIND CHILL INDEX
   HX - HEAT INDEX
  VSB - VISIBILITY




USA.gov is the U.S. government's official web portal to all federal, state and local government web resources and services.